Weather in Xingtai

China     37°03′46″N   114°28′27″E
temp.,
°C
wind,
m/s
gust,
m/s
humid.,
%
clouds,
%
prec.,
mm/h
press.,
hPa
HPBL,
m
6 march, sat
sat623:00+1nne81192100 0.7 1033782
02:000nne81288100 1.3 1035874
05:00−1nne71086100 0.7 1036787
08:000nne5746100 0.8 1037886
11:00+3nne564187 0.0 10381229
14:00+5ne453174 0.0 10351218
17:00+4ne333565 0.0 10341048
20:00+3ene344067 0.0 1034613
7 march, sun
sun723:00+2ese2440100 0.0 1035336
02:00+1se114497 0.0 103440
05:000ese114593 0.0 103225
08:00+1ese124196 0.0 1032180
11:00+5ese213339 0.0 1031696
14:00+8se223019 0.0 1028914
17:00+9sse23300 0.0 1026960
20:00+7se233714 0.0 102864
8 march, mon
mon823:00+6s234183 0.0 102943
02:00+5s224492 0.0 102823
05:00+4s1149100 0.0 102722
08:00+5s1148100 0.0 102868
11:00+10s3442100 0.0 1027747
14:00+14s5639100 0.0 10241102
17:00+14s5740100 0.0 10221092
20:00+11s41051100 0.0 1024323
9 march, tue
tue923:00+10s4957100 0.0 1024286
02:00+8ssw346499 0.0 102489
05:00+7sw226733 0.0 102423
08:00+8s116317 0.0 102655
11:00+14s34410 0.0 1026645
14:00+19s33300 0.0 10241217
17:00+19sse55350 0.0 10231431
20:00+14sse38530 0.0 1025168
10 march, wed
wed1023:00+12s4106759 0.0 1027343
02:00+11s4107429 0.0 1027228
05:00+9s378470 0.0 1026177
08:00+10s478285 0.0 1026276
11:00+15s6856100 0.0 10251106
14:00+16s5748100 0.0 10231468
17:00+15s4652100 0.0 10221443
20:00+13s3660100 0.0 1023232